Year,Month,Day,Hour,Minute,Value (Times are PST for temperature in C)
2016,06,22,00,00,15.20
2016,06,22,00,01,15.20
2016,06,22,00,02,15.20
2016,06,22,00,03,15.20
2016,06,22,00,04,15.20
2016,06,22,00,05,15.20
2016,06,22,00,06,15.20
2016,06,22,00,07,15.20
2016,06,22,00,08,15.20
2016,06,22,00,09,15.20
2016,06,22,00,10,15.20
2016,06,22,00,11,15.20
2016,06,22,00,12,15.20
2016,06,22,00,13,15.20
2016,06,22,00,14,15.20
2016,06,22,00,15,15.20
2016,06,22,00,16,15.20
2016,06,22,00,17,15.20
2016,06,22,00,18,15.20
2016,06,22,00,19,15.20
2016,06,22,00,20,15.20
2016,06,22,00,21,15.20
2016,06,22,00,22,15.20
2016,06,22,00,23,15.10
2016,06,22,00,24,15.10
2016,06,22,00,25,15.10
2016,06,22,00,26,15.10
2016,06,22,00,27,15.10
2016,06,22,00,28,15.10
2016,06,22,00,29,15.10
2016,06,22,00,30,15.10
2016,06,22,00,31,15.10
2016,06,22,00,32,15.10
2016,06,22,00,33,15.10
2016,06,22,00,34,15.10
2016,06,22,00,35,15.10
2016,06,22,00,36,15.10
2016,06,22,00,37,15.10
2016,06,22,00,38,15.10
2016,06,22,00,39,15.10
2016,06,22,00,40,15.00
2016,06,22,00,41,15.00
2016,06,22,00,42,15.00
2016,06,22,00,43,15.00
2016,06,22,00,44,15.00
2016,06,22,00,45,15.00
2016,06,22,00,46,15.00
2016,06,22,00,47,15.00
2016,06,22,00,48,15.00
2016,06,22,00,49,15.00
2016,06,22,00,50,15.00
2016,06,22,00,51,14.90
2016,06,22,00,52,14.90
2016,06,22,00,53,14.90
2016,06,22,00,54,14.90
2016,06,22,00,55,14.90
2016,06,22,00,56,14.90
2016,06,22,00,57,14.90
2016,06,22,00,58,14.90
2016,06,22,00,59,14.90
2016,06,22,01,00,14.90
2016,06,22,01,01,14.90
2016,06,22,01,02,14.90
2016,06,22,01,03,14.80
2016,06,22,01,04,14.80
2016,06,22,01,05,14.80
2016,06,22,01,06,14.80
2016,06,22,01,07,14.80
2016,06,22,01,08,14.80
2016,06,22,01,09,14.80
2016,06,22,01,10,14.80
2016,06,22,01,11,14.80
2016,06,22,01,12,14.70
2016,06,22,01,13,14.70
2016,06,22,01,14,14.70
2016,06,22,01,15,14.70
2016,06,22,01,16,14.70
2016,06,22,01,17,14.70
2016,06,22,01,18,14.70
2016,06,22,01,19,14.70
2016,06,22,01,20,14.70
2016,06,22,01,21,14.70
2016,06,22,01,22,14.60
2016,06,22,01,23,14.60
2016,06,22,01,24,14.60
2016,06,22,01,25,14.60
2016,06,22,01,26,14.60
2016,06,22,01,27,14.60
2016,06,22,01,28,14.60
2016,06,22,01,29,14.60
2016,06,22,01,30,14.60
2016,06,22,01,31,14.60
2016,06,22,01,32,14.60
2016,06,22,01,33,14.60
2016,06,22,01,34,14.60
2016,06,22,01,35,14.60
2016,06,22,01,36,14.50
2016,06,22,01,37,14.50
2016,06,22,01,38,14.50
2016,06,22,01,39,14.50
2016,06,22,01,40,14.50
2016,06,22,01,41,14.50
2016,06,22,01,42,14.50
2016,06,22,01,43,14.50
2016,06,22,01,44,14.40
2016,06,22,01,45,14.40
2016,06,22,01,46,14.40
2016,06,22,01,47,14.40
2016,06,22,01,48,14.40
2016,06,22,01,49,14.40
2016,06,22,01,50,14.40
2016,06,22,01,51,14.40
2016,06,22,01,52,14.30
2016,06,22,01,53,14.30
2016,06,22,01,54,14.30
2016,06,22,01,55,14.30
2016,06,22,01,56,14.30
2016,06,22,01,57,14.30
2016,06,22,01,58,14.20
2016,06,22,01,59,14.20
2016,06,22,02,00,14.20
2016,06,22,02,01,14.20
2016,06,22,02,02,14.20
2016,06,22,02,03,14.20
2016,06,22,02,04,14.20
2016,06,22,02,05,14.20
2016,06,22,02,06,14.10
2016,06,22,02,07,14.10
2016,06,22,02,08,14.10
2016,06,22,02,09,14.10
2016,06,22,02,10,14.10
2016,06,22,02,11,14.10
2016,06,22,02,12,14.10
2016,06,22,02,13,14.10
2016,06,22,02,14,14.00
2016,06,22,02,15,14.00
2016,06,22,02,16,14.00
2016,06,22,02,17,14.00
2016,06,22,02,18,14.00
2016,06,22,02,19,13.90
2016,06,22,02,20,13.90
2016,06,22,02,21,13.90
2016,06,22,02,22,13.90
2016,06,22,02,23,13.90
2016,06,22,02,24,13.90
2016,06,22,02,25,13.90
2016,06,22,02,26,13.80
2016,06,22,02,27,13.80
2016,06,22,02,28,13.80
2016,06,22,02,29,13.80
2016,06,22,02,30,13.80
2016,06,22,02,31,13.80
2016,06,22,02,32,13.80
2016,06,22,02,33,13.70
2016,06,22,02,34,13.70
2016,06,22,02,35,13.70
2016,06,22,02,36,13.70
2016,06,22,02,37,13.70
2016,06,22,02,38,13.70
2016,06,22,02,39,13.60
2016,06,22,02,40,13.60
2016,06,22,02,41,13.60
2016,06,22,02,42,13.60
2016,06,22,02,43,13.60
2016,06,22,02,44,13.60
2016,06,22,02,45,13.60
2016,06,22,02,46,13.50
2016,06,22,02,47,13.50
2016,06,22,02,48,13.50
2016,06,22,02,49,13.40
2016,06,22,02,50,13.40
2016,06,22,02,51,13.40
2016,06,22,02,52,13.40
2016,06,22,02,53,13.40
2016,06,22,02,54,13.40
2016,06,22,02,55,13.30
2016,06,22,02,56,13.30
2016,06,22,02,57,13.30
2016,06,22,02,58,13.30
2016,06,22,02,59,13.30
2016,06,22,03,00,13.30
2016,06,22,03,01,13.30
2016,06,22,03,02,13.20
2016,06,22,03,03,13.20
2016,06,22,03,04,13.20
2016,06,22,03,05,13.20
2016,06,22,03,06,13.20
2016,06,22,03,07,13.20
2016,06,22,03,08,13.20
2016,06,22,03,09,13.20
2016,06,22,03,10,13.10
2016,06,22,03,11,13.10
2016,06,22,03,12,13.10
2016,06,22,03,13,13.10
2016,06,22,03,14,13.10
2016,06,22,03,15,13.10
2016,06,22,03,16,13.10
2016,06,22,03,17,13.10
2016,06,22,03,18,13.00
2016,06,22,03,19,13.00
2016,06,22,03,20,13.00
2016,06,22,03,21,13.00
2016,06,22,03,22,13.00
2016,06,22,03,23,13.00
2016,06,22,03,24,12.90
2016,06,22,03,25,12.90
2016,06,22,03,26,12.90
2016,06,22,03,27,12.90
2016,06,22,03,28,12.90
2016,06,22,03,29,12.90
2016,06,22,03,30,12.90
2016,06,22,03,31,12.90
2016,06,22,03,32,12.90
2016,06,22,03,33,12.90
2016,06,22,03,34,12.80
2016,06,22,03,35,12.80
2016,06,22,03,36,12.80
2016,06,22,03,37,12.80
2016,06,22,03,38,12.80
2016,06,22,03,39,12.80
2016,06,22,03,40,12.80
2016,06,22,03,41,12.80
2016,06,22,03,42,12.80
2016,06,22,03,43,12.80
2016,06,22,03,44,12.80
2016,06,22,03,45,12.80
2016,06,22,03,46,12.80
2016,06,22,03,47,12.80
2016,06,22,03,48,12.80
2016,06,22,03,49,12.80
2016,06,22,03,50,12.80
2016,06,22,03,51,12.80
2016,06,22,03,52,12.80
2016,06,22,03,53,12.80
2016,06,22,03,54,12.80
2016,06,22,03,55,12.80
2016,06,22,03,56,12.80
2016,06,22,03,57,12.80
2016,06,22,03,58,12.80
2016,06,22,03,59,12.80
2016,06,22,04,00,12.80
2016,06,22,04,01,12.80
2016,06,22,04,02,12.80
2016,06,22,04,03,12.80
2016,06,22,04,04,12.70
2016,06,22,04,05,12.80
2016,06,22,04,06,12.70
2016,06,22,04,07,12.70
2016,06,22,04,08,12.70
2016,06,22,04,09,12.70
2016,06,22,04,10,12.70
2016,06,22,04,11,12.70
2016,06,22,04,12,12.80
2016,06,22,04,13,12.80
2016,06,22,04,14,12.80
2016,06,22,04,15,12.80
2016,06,22,04,16,12.80
2016,06,22,04,17,12.80
2016,06,22,04,18,12.80
2016,06,22,04,19,12.80
2016,06,22,04,20,12.80
2016,06,22,04,21,12.80
2016,06,22,04,22,12.80
2016,06,22,04,23,12.80
2016,06,22,04,24,12.80
2016,06,22,04,25,12.80
2016,06,22,04,26,12.80
2016,06,22,04,27,12.80
2016,06,22,04,28,12.80
2016,06,22,04,29,12.80
2016,06,22,04,30,12.80
2016,06,22,04,31,12.90
2016,06,22,04,32,12.90
2016,06,22,04,33,12.90
2016,06,22,04,34,12.90
2016,06,22,04,35,12.90
2016,06,22,04,36,12.90
2016,06,22,04,37,12.90
2016,06,22,04,38,12.90
2016,06,22,04,39,12.90
2016,06,22,04,40,12.90
2016,06,22,04,41,12.90
2016,06,22,04,42,12.90
2016,06,22,04,43,12.90
2016,06,22,04,44,12.90
2016,06,22,04,45,12.90
2016,06,22,04,46,12.90
2016,06,22,04,47,12.90
2016,06,22,04,48,12.90
2016,06,22,04,49,12.90
2016,06,22,04,50,12.90
2016,06,22,04,51,12.90
2016,06,22,04,52,12.90
2016,06,22,04,53,12.90
2016,06,22,04,54,12.90
2016,06,22,04,55,12.90
2016,06,22,04,56,12.90
2016,06,22,04,57,12.90
2016,06,22,04,58,12.90
2016,06,22,04,59,12.90
2016,06,22,05,00,12.80
2016,06,22,05,01,12.80
2016,06,22,05,02,12.80
2016,06,22,05,03,12.80
2016,06,22,05,04,12.80
2016,06,22,05,05,12.80
2016,06,22,05,06,12.80
2016,06,22,05,07,12.80
2016,06,22,05,08,12.80
2016,06,22,05,09,12.80
2016,06,22,05,10,12.80
2016,06,22,05,11,12.90
2016,06,22,05,12,12.90
2016,06,22,05,13,12.90
2016,06,22,05,14,12.90
2016,06,22,05,15,12.90
2016,06,22,05,16,12.90
2016,06,22,05,17,12.90
2016,06,22,05,18,12.90
2016,06,22,05,19,12.90
2016,06,22,05,20,12.90
2016,06,22,05,21,12.90
2016,06,22,05,22,12.90
2016,06,22,05,23,12.90
2016,06,22,05,24,12.90
2016,06,22,05,25,12.90
2016,06,22,05,26,12.90
2016,06,22,05,27,12.90
2016,06,22,05,28,12.90
2016,06,22,05,29,12.90
2016,06,22,05,30,12.90
2016,06,22,05,31,12.90
2016,06,22,05,32,13.00
2016,06,22,05,33,13.00
2016,06,22,05,34,13.00
2016,06,22,05,35,13.00
2016,06,22,05,36,13.00
2016,06,22,05,37,13.00
2016,06,22,05,38,13.00
2016,06,22,05,39,13.00
2016,06,22,05,40,13.00
2016,06,22,05,41,13.00
2016,06,22,05,42,13.00
2016,06,22,05,43,13.00
2016,06,22,05,44,13.00
2016,06,22,05,45,13.00
2016,06,22,05,46,13.00
2016,06,22,05,47,13.00
2016,06,22,05,48,13.00
2016,06,22,05,49,13.10
2016,06,22,05,50,13.10
2016,06,22,05,51,13.10
2016,06,22,05,52,13.10
2016,06,22,05,53,13.10
2016,06,22,05,54,13.10
2016,06,22,05,55,13.10
2016,06,22,05,56,13.10
2016,06,22,05,57,13.10
2016,06,22,05,58,13.10
2016,06,22,05,59,13.10
2016,06,22,06,00,13.10
2016,06,22,06,01,13.10
2016,06,22,06,02,13.10
2016,06,22,06,03,13.10
2016,06,22,06,04,13.10
2016,06,22,06,05,13.10
2016,06,22,06,06,13.10
2016,06,22,06,07,13.10
2016,06,22,06,08,13.10
2016,06,22,06,09,13.10
2016,06,22,06,10,13.10
2016,06,22,06,11,13.10
2016,06,22,06,12,13.10
2016,06,22,06,13,13.10
2016,06,22,06,14,13.10
2016,06,22,06,15,13.10
2016,06,22,06,16,13.20
2016,06,22,06,17,13.20
2016,06,22,06,18,13.20
2016,06,22,06,19,13.20
2016,06,22,06,20,13.20
2016,06,22,06,21,13.20
2016,06,22,06,22,13.20
2016,06,22,06,23,13.20
2016,06,22,06,24,13.20
2016,06,22,06,25,13.20
2016,06,22,06,26,13.20
2016,06,22,06,27,13.20
2016,06,22,06,28,13.30
2016,06,22,06,29,13.30
2016,06,22,06,30,13.30
2016,06,22,06,31,13.30
2016,06,22,06,32,13.30
2016,06,22,06,33,13.30
2016,06,22,06,34,13.30
2016,06,22,06,35,13.30
2016,06,22,06,36,13.30
2016,06,22,06,37,13.30
2016,06,22,06,38,13.40
2016,06,22,06,39,13.40
2016,06,22,06,40,13.40
2016,06,22,06,41,13.40
2016,06,22,06,42,13.40
2016,06,22,06,43,13.40
2016,06,22,06,44,13.40
2016,06,22,06,45,13.50
2016,06,22,06,46,13.50
2016,06,22,06,47,13.50
2016,06,22,06,48,13.50
2016,06,22,06,49,13.50
2016,06,22,06,50,13.50
2016,06,22,06,51,13.60
2016,06,22,06,52,13.60
2016,06,22,06,53,13.60
2016,06,22,06,54,13.60
2016,06,22,06,55,13.60
2016,06,22,06,56,13.60
2016,06,22,06,57,13.60
2016,06,22,06,58,13.70
2016,06,22,06,59,13.70
2016,06,22,07,00,13.70
2016,06,22,07,01,13.70
2016,06,22,07,02,13.70
2016,06,22,07,03,13.70
2016,06,22,07,04,13.80
2016,06,22,07,05,13.80
2016,06,22,07,06,13.80
2016,06,22,07,07,13.80
2016,06,22,07,08,13.80
2016,06,22,07,09,13.80
2016,06,22,07,10,13.80
2016,06,22,07,11,13.80
2016,06,22,07,12,13.90
2016,06,22,07,13,13.90
2016,06,22,07,14,13.90
2016,06,22,07,15,13.90
2016,06,22,07,16,13.90
2016,06,22,07,17,13.90
2016,06,22,07,18,13.90
2016,06,22,07,19,14.00
2016,06,22,07,20,14.00
2016,06,22,07,21,14.00
2016,06,22,07,22,14.00
2016,06,22,07,23,14.10
2016,06,22,07,24,14.10
2016,06,22,07,25,14.10
2016,06,22,07,26,14.10
2016,06,22,07,27,14.10
2016,06,22,07,28,14.20
2016,06,22,07,29,14.20
2016,06,22,07,30,14.20
2016,06,22,07,31,14.20
2016,06,22,07,32,14.30
2016,06,22,07,33,14.30
2016,06,22,07,34,14.30
2016,06,22,07,35,14.40
2016,06,22,07,36,14.40
2016,06,22,07,37,14.40
2016,06,22,07,38,14.50
2016,06,22,07,39,14.50
2016,06,22,07,40,14.60
2016,06,22,07,41,14.60
2016,06,22,07,42,14.60
2016,06,22,07,43,14.60
2016,06,22,07,44,14.70
2016,06,22,07,45,14.70
2016,06,22,07,46,14.70
2016,06,22,07,47,14.80
2016,06,22,07,48,14.80
2016,06,22,07,49,14.80
2016,06,22,07,50,14.80
2016,06,22,07,51,14.90
2016,06,22,07,52,14.90
2016,06,22,07,53,15.00
2016,06,22,07,54,15.00
2016,06,22,07,55,15.00
2016,06,22,07,56,15.10
2016,06,22,07,57,15.10
2016,06,22,07,58,15.10
2016,06,22,07,59,15.10
2016,06,22,08,00,15.20
2016,06,22,08,01,15.20
2016,06,22,08,02,15.20
2016,06,22,08,03,15.30
2016,06,22,08,04,15.30
2016,06,22,08,05,15.30
2016,06,22,08,06,15.40
2016,06,22,08,07,15.40
2016,06,22,08,08,15.40
2016,06,22,08,09,15.40
2016,06,22,08,10,15.40
2016,06,22,08,11,15.50
2016,06,22,08,12,15.50
2016,06,22,08,13,15.50
2016,06,22,08,14,15.50
2016,06,22,08,15,15.50
2016,06,22,08,16,15.50
2016,06,22,08,17,15.60
2016,06,22,08,18,15.60
2016,06,22,08,19,15.60
2016,06,22,08,20,15.60
2016,06,22,08,21,15.60
2016,06,22,08,22,15.70
2016,06,22,08,23,15.70
2016,06,22,08,24,15.70
2016,06,22,08,25,15.80
2016,06,22,08,26,15.80
2016,06,22,08,27,15.80
2016,06,22,08,28,15.80
2016,06,22,08,29,15.90
2016,06,22,08,30,15.90
2016,06,22,08,31,15.90
2016,06,22,08,32,16.00
2016,06,22,08,33,16.00
2016,06,22,08,34,16.10
2016,06,22,08,35,16.10
2016,06,22,08,36,16.10
2016,06,22,08,37,16.20
2016,06,22,08,38,16.20
2016,06,22,08,39,16.20
2016,06,22,08,40,16.20
2016,06,22,08,41,16.30
2016,06,22,08,42,16.30
2016,06,22,08,43,16.30
2016,06,22,08,44,16.30
2016,06,22,08,45,16.30
2016,06,22,08,46,16.30
2016,06,22,08,47,16.30
2016,06,22,08,48,16.30
2016,06,22,08,49,16.40
2016,06,22,08,50,16.40
2016,06,22,08,51,16.40
2016,06,22,08,52,16.40
2016,06,22,08,53,16.50
2016,06,22,08,54,16.50
2016,06,22,08,55,16.50
2016,06,22,08,56,16.60
2016,06,22,08,57,16.60
2016,06,22,08,58,16.60
2016,06,22,08,59,16.70
2016,06,22,09,00,16.70
2016,06,22,09,01,16.70
2016,06,22,09,02,16.80
2016,06,22,09,03,16.80
2016,06,22,09,04,16.80
2016,06,22,09,05,16.90
2016,06,22,09,06,16.90
2016,06,22,09,07,16.90
2016,06,22,09,08,17.00
2016,06,22,09,09,17.10
2016,06,22,09,10,17.10
2016,06,22,09,11,17.10
2016,06,22,09,12,17.20
2016,06,22,09,13,17.20
2016,06,22,09,14,17.20
2016,06,22,09,15,17.20
2016,06,22,09,16,17.20
2016,06,22,09,17,17.20
2016,06,22,09,18,17.20
2016,06,22,09,19,17.30
2016,06,22,09,20,17.30
2016,06,22,09,21,17.30
2016,06,22,09,22,17.40
2016,06,22,09,23,17.40
2016,06,22,09,24,17.40
2016,06,22,09,25,17.50
2016,06,22,09,26,17.50
2016,06,22,09,27,17.50
2016,06,22,09,28,17.60
2016,06,22,09,29,17.60
2016,06,22,09,30,17.60
2016,06,22,09,31,17.60
2016,06,22,09,32,17.60
2016,06,22,09,33,17.60
2016,06,22,09,34,17.60
2016,06,22,09,35,17.70
2016,06,22,09,36,17.70
2016,06,22,09,37,17.70
2016,06,22,09,38,17.70
2016,06,22,09,39,17.80
2016,06,22,09,40,17.80
2016,06,22,09,41,17.80
2016,06,22,09,42,17.80
2016,06,22,09,43,17.80
2016,06,22,09,44,17.80
2016,06,22,09,45,17.80
2016,06,22,09,46,17.80
2016,06,22,09,47,17.80
2016,06,22,09,48,17.80
2016,06,22,09,49,17.80
2016,06,22,09,50,17.80
2016,06,22,09,51,17.90
2016,06,22,09,52,17.90
2016,06,22,09,53,17.90
2016,06,22,09,54,17.90
2016,06,22,09,55,17.90
2016,06,22,09,56,17.90
2016,06,22,09,57,18.00
2016,06,22,09,58,18.10
2016,06,22,09,59,18.10
2016,06,22,10,00,18.10
2016,06,22,10,01,18.10
2016,06,22,10,02,18.10
2016,06,22,10,03,18.10
2016,06,22,10,04,18.10
2016,06,22,10,05,18.10
2016,06,22,10,06,18.10
2016,06,22,10,07,18.10
2016,06,22,10,08,18.10
2016,06,22,10,09,18.20
2016,06,22,10,10,18.20
2016,06,22,10,11,18.30
2016,06,22,10,12,18.40
2016,06,22,10,13,18.40
2016,06,22,10,14,18.50
2016,06,22,10,15,18.60
2016,06,22,10,16,18.70
2016,06,22,10,17,18.70
2016,06,22,10,18,18.80
2016,06,22,10,19,18.80
2016,06,22,10,20,18.90
2016,06,22,10,21,18.90
2016,06,22,10,22,19.00
2016,06,22,10,23,19.10
2016,06,22,10,24,19.10
2016,06,22,10,25,19.10
2016,06,22,10,26,19.10
2016,06,22,10,27,19.20
2016,06,22,10,28,19.20
2016,06,22,10,29,19.20
2016,06,22,10,30,19.20
2016,06,22,10,31,19.20
2016,06,22,10,32,19.30
2016,06,22,10,33,19.30
2016,06,22,10,34,19.30
2016,06,22,10,35,19.30
2016,06,22,10,36,19.30
2016,06,22,10,37,19.30
2016,06,22,10,38,19.40
2016,06,22,10,39,19.40
2016,06,22,10,40,19.40
2016,06,22,10,41,19.40
2016,06,22,10,42,19.50
2016,06,22,10,43,19.50
2016,06,22,10,44,19.50
2016,06,22,10,45,19.60
2016,06,22,10,46,19.60
2016,06,22,10,47,19.60
2016,06,22,10,48,19.70
2016,06,22,10,49,19.70
2016,06,22,10,50,19.60
2016,06,22,10,51,19.60
2016,06,22,10,52,19.60
2016,06,22,10,53,19.60
2016,06,22,10,54,19.60
2016,06,22,10,55,19.60
2016,06,22,10,56,19.60
2016,06,22,10,57,19.60
2016,06,22,10,58,19.60
2016,06,22,10,59,19.60
2016,06,22,11,00,19.60
2016,06,22,11,01,19.60
2016,06,22,11,02,19.70
2016,06,22,11,03,19.70
2016,06,22,11,04,19.60
2016,06,22,11,05,19.60
2016,06,22,11,06,19.60
2016,06,22,11,07,19.60
2016,06,22,11,08,19.60
2016,06,22,11,09,19.60
2016,06,22,11,10,19.60
2016,06,22,11,11,19.60
2016,06,22,11,12,19.70
2016,06,22,11,13,19.70
2016,06,22,11,14,19.70
2016,06,22,11,15,19.70
2016,06,22,11,16,19.80
2016,06,22,11,17,19.80
2016,06,22,11,18,19.90
2016,06,22,11,19,19.90
2016,06,22,11,20,20.00
2016,06,22,11,21,20.00
2016,06,22,11,22,20.10
2016,06,22,11,23,20.20
2016,06,22,11,24,20.20
2016,06,22,11,25,20.30
2016,06,22,11,26,20.30
2016,06,22,11,27,20.40
2016,06,22,11,28,20.40
2016,06,22,11,29,20.40
2016,06,22,11,30,20.50
2016,06,22,11,31,20.50
2016,06,22,11,32,20.60
2016,06,22,11,33,20.60
2016,06,22,11,34,20.60
2016,06,22,11,35,20.60
2016,06,22,11,36,20.70
2016,06,22,11,37,20.70
2016,06,22,11,38,20.70
2016,06,22,11,39,20.70
2016,06,22,11,40,20.70
2016,06,22,11,41,20.70
2016,06,22,11,42,20.70
2016,06,22,11,43,20.80
2016,06,22,11,44,20.80
2016,06,22,11,45,20.80
2016,06,22,11,46,20.90
2016,06,22,11,47,20.90
2016,06,22,11,48,20.90
2016,06,22,11,49,20.90
2016,06,22,11,50,20.90
2016,06,22,11,51,21.00
2016,06,22,11,52,21.00
2016,06,22,11,53,21.00
2016,06,22,11,54,21.00
2016,06,22,11,55,20.90
2016,06,22,11,56,21.00
2016,06,22,11,57,21.00
2016,06,22,11,58,21.00
2016,06,22,11,59,21.00
2016,06,22,12,00,21.00
2016,06,22,12,01,21.00
2016,06,22,12,02,20.90
2016,06,22,12,03,20.90
2016,06,22,12,04,20.90
2016,06,22,12,05,21.00
2016,06,22,12,06,20.90
2016,06,22,12,07,20.90
2016,06,22,12,08,20.90
2016,06,22,12,09,20.80
2016,06,22,12,10,20.80
2016,06,22,12,11,20.80
2016,06,22,12,12,20.70
2016,06,22,12,13,20.70
2016,06,22,12,14,20.70
2016,06,22,12,15,20.80
2016,06,22,12,16,20.80
2016,06,22,12,17,20.80
2016,06,22,12,18,20.80
2016,06,22,12,19,20.80
2016,06,22,12,20,20.90
2016,06,22,12,21,21.00
2016,06,22,12,22,21.10
2016,06,22,12,23,21.20
2016,06,22,12,24,21.30
2016,06,22,12,25,21.30
2016,06,22,12,26,21.30
2016,06,22,12,27,21.30
2016,06,22,12,28,21.40
2016,06,22,12,29,21.40
2016,06,22,12,30,21.50
2016,06,22,12,31,21.50
2016,06,22,12,32,21.50
2016,06,22,12,33,21.60
2016,06,22,12,34,21.60
2016,06,22,12,35,21.80
2016,06,22,12,36,21.90
2016,06,22,12,37,21.90
2016,06,22,12,38,22.00
2016,06,22,12,39,22.00
2016,06,22,12,40,22.00
2016,06,22,12,41,22.10
2016,06,22,12,42,22.10
2016,06,22,12,43,22.20
2016,06,22,12,44,22.20
2016,06,22,12,45,22.30
2016,06,22,12,46,22.30
2016,06,22,12,47,22.40
2016,06,22,12,48,22.50
2016,06,22,12,49,22.50
2016,06,22,12,50,22.60
2016,06,22,12,51,22.60
2016,06,22,12,52,22.60
2016,06,22,12,53,22.70
2016,06,22,12,54,22.80
2016,06,22,12,55,22.70
2016,06,22,12,56,22.70
2016,06,22,12,57,22.70
2016,06,22,12,58,22.70
2016,06,22,12,59,22.70
2016,06,22,13,00,22.70
2016,06,22,13,01,22.80
2016,06,22,13,02,22.80
2016,06,22,13,03,22.80
2016,06,22,13,04,22.80
2016,06,22,13,05,22.90
2016,06,22,13,06,22.90
2016,06,22,13,07,22.90
2016,06,22,13,08,22.90
2016,06,22,13,09,22.90
2016,06,22,13,10,22.90
2016,06,22,13,11,22.80
2016,06,22,13,12,22.70
2016,06,22,13,13,22.60
2016,06,22,13,14,22.50
2016,06,22,13,15,22.40
2016,06,22,13,16,22.30
2016,06,22,13,17,22.20
2016,06,22,13,18,22.10
2016,06,22,13,19,22.10
2016,06,22,13,20,22.10
2016,06,22,13,21,22.10
2016,06,22,13,22,22.10
2016,06,22,13,23,22.10
2016,06,22,13,24,22.10
2016,06,22,13,25,22.10
2016,06,22,13,26,22.10
2016,06,22,13,27,22.10
2016,06,22,13,28,22.10
2016,06,22,13,29,22.10
2016,06,22,13,30,22.10
2016,06,22,13,31,22.10
2016,06,22,13,32,22.10
2016,06,22,13,33,22.10
2016,06,22,13,34,22.00
2016,06,22,13,35,21.90
2016,06,22,13,36,21.90
2016,06,22,13,37,21.90
2016,06,22,13,38,21.90
2016,06,22,13,39,22.00
2016,06,22,13,40,22.00
2016,06,22,13,41,22.00
2016,06,22,13,42,22.00
2016,06,22,13,43,21.90
2016,06,22,13,44,21.90
2016,06,22,13,45,21.90
2016,06,22,13,46,21.80
2016,06,22,13,47,21.70
2016,06,22,13,48,21.70
2016,06,22,13,49,21.70
2016,06,22,13,50,21.70
2016,06,22,13,51,21.70
2016,06,22,13,52,21.70
2016,06,22,13,53,21.70
2016,06,22,13,54,21.70
2016,06,22,13,55,21.70
2016,06,22,13,56,21.70
2016,06,22,13,57,21.70
2016,06,22,13,58,21.70
2016,06,22,13,59,21.70
2016,06,22,14,00,21.70
2016,06,22,14,01,21.80
2016,06,22,14,02,21.80
2016,06,22,14,03,21.90
2016,06,22,14,04,22.00
2016,06,22,14,05,22.10
2016,06,22,14,06,22.10
2016,06,22,14,07,22.20
2016,06,22,14,08,22.20
2016,06,22,14,09,22.20
2016,06,22,14,10,22.20
2016,06,22,14,11,22.20
2016,06,22,14,12,22.20
2016,06,22,14,13,22.20
2016,06,22,14,14,22.20
2016,06,22,14,15,22.10
2016,06,22,14,16,22.10
2016,06,22,14,17,22.10
2016,06,22,14,18,22.10
2016,06,22,14,19,22.10
2016,06,22,14,20,22.10
2016,06,22,14,21,22.00
2016,06,22,14,22,22.00
2016,06,22,14,23,22.00
2016,06,22,14,24,22.00
2016,06,22,14,25,22.00
2016,06,22,14,26,22.10
2016,06,22,14,27,22.10
2016,06,22,14,28,22.20
2016,06,22,14,29,22.20
2016,06,22,14,30,22.20
2016,06,22,14,31,22.20
2016,06,22,14,32,22.20
2016,06,22,14,33,22.20
2016,06,22,14,34,22.20
2016,06,22,14,35,22.20
2016,06,22,14,36,22.30
2016,06,22,14,37,22.30
2016,06,22,14,38,22.30
2016,06,22,14,39,22.30
2016,06,22,14,40,22.40
2016,06,22,14,41,22.50
2016,06,22,14,42,22.60
2016,06,22,14,43,22.60
2016,06,22,14,44,22.70
2016,06,22,14,45,22.70
2016,06,22,14,46,22.70
2016,06,22,14,47,22.70
2016,06,22,14,48,22.70
2016,06,22,14,49,22.70
2016,06,22,14,50,22.70
2016,06,22,14,51,22.70
2016,06,22,14,52,22.70
2016,06,22,14,53,22.70
2016,06,22,14,54,22.70
2016,06,22,14,55,22.70
2016,06,22,14,56,22.60
2016,06,22,14,57,22.60
2016,06,22,14,58,22.50
2016,06,22,14,59,22.50
2016,06,22,15,00,22.50
2016,06,22,15,01,22.50
2016,06,22,15,02,22.60
2016,06,22,15,03,22.60
2016,06,22,15,04,22.60
2016,06,22,15,05,22.70
2016,06,22,15,06,22.70
2016,06,22,15,07,22.80
2016,06,22,15,08,22.80
2016,06,22,15,09,22.80
2016,06,22,15,10,22.80
2016,06,22,15,11,22.90
2016,06,22,15,12,22.90
2016,06,22,15,13,23.00
2016,06,22,15,14,23.00
2016,06,22,15,15,23.00
2016,06,22,15,16,23.00
2016,06,22,15,17,23.00
2016,06,22,15,18,23.00
2016,06,22,15,19,23.00
2016,06,22,15,20,23.00
2016,06,22,15,21,23.00
2016,06,22,15,22,23.10
2016,06,22,15,23,23.10
2016,06,22,15,24,23.10
2016,06,22,15,25,23.10
2016,06,22,15,26,23.10
2016,06,22,15,27,23.10
2016,06,22,15,28,23.20
2016,06,22,15,29,23.30
2016,06,22,15,30,23.30
2016,06,22,15,31,23.40
2016,06,22,15,32,23.40
2016,06,22,15,33,23.40
2016,06,22,15,34,23.40
2016,06,22,15,35,23.40
2016,06,22,15,36,23.50
2016,06,22,15,37,23.50
2016,06,22,15,38,23.60
2016,06,22,15,39,23.70
2016,06,22,15,40,23.70
2016,06,22,15,41,23.70
2016,06,22,15,42,23.70
2016,06,22,15,43,23.70
2016,06,22,15,44,23.70
2016,06,22,15,45,23.70
2016,06,22,15,46,23.60
2016,06,22,15,47,23.60
2016,06,22,15,48,23.50
2016,06,22,15,49,23.50
2016,06,22,15,50,23.40
2016,06,22,15,51,23.40
2016,06,22,15,52,23.30
2016,06,22,15,53,23.30
2016,06,22,15,54,23.30
2016,06,22,15,55,23.10
2016,06,22,15,56,23.00
2016,06,22,15,57,22.90
2016,06,22,15,58,22.90
2016,06,22,15,59,22.90
2016,06,22,16,00,22.90
2016,06,22,16,01,22.80
2016,06,22,16,02,22.80
2016,06,22,16,03,22.80
2016,06,22,16,04,22.80
2016,06,22,16,05,22.70
2016,06,22,16,06,22.70
2016,06,22,16,07,22.70
2016,06,22,16,08,22.70
2016,06,22,16,09,22.70
2016,06,22,16,10,22.70
2016,06,22,16,11,22.60
2016,06,22,16,12,22.60
2016,06,22,16,13,22.60
2016,06,22,16,14,22.60
2016,06,22,16,15,22.70
2016,06,22,16,16,22.70
2016,06,22,16,17,22.60
2016,06,22,16,18,22.60
2016,06,22,16,19,22.60
2016,06,22,16,20,22.60
2016,06,22,16,21,22.70
2016,06,22,16,22,22.70
2016,06,22,16,23,22.80
2016,06,22,16,24,22.90
2016,06,22,16,25,22.90
2016,06,22,16,26,22.90
2016,06,22,16,27,23.00
2016,06,22,16,28,23.00
2016,06,22,16,29,23.10
2016,06,22,16,30,23.10
2016,06,22,16,31,23.00
2016,06,22,16,32,23.00
2016,06,22,16,33,22.90
2016,06,22,16,34,22.90
2016,06,22,16,35,22.90
2016,06,22,16,36,22.90
2016,06,22,16,37,22.80
2016,06,22,16,38,22.80
2016,06,22,16,39,22.70
2016,06,22,16,40,22.70
2016,06,22,16,41,22.70
2016,06,22,16,42,22.70
2016,06,22,16,43,22.70
2016,06,22,16,44,22.80
2016,06,22,16,45,22.80
2016,06,22,16,46,22.80
2016,06,22,16,47,22.90
2016,06,22,16,48,22.90
2016,06,22,16,49,22.90
2016,06,22,16,50,22.80
2016,06,22,16,51,22.80
2016,06,22,16,52,22.80
2016,06,22,16,53,22.80
2016,06,22,16,54,22.80
2016,06,22,16,55,22.80
2016,06,22,16,56,22.80
2016,06,22,16,57,22.80
2016,06,22,16,58,22.80
2016,06,22,16,59,22.80
2016,06,22,17,00,22.80
2016,06,22,17,01,22.80
2016,06,22,17,02,22.70
2016,06,22,17,03,22.70
2016,06,22,17,04,22.70
2016,06,22,17,05,22.60
2016,06,22,17,06,22.60
2016,06,22,17,07,22.60
2016,06,22,17,08,22.60
2016,06,22,17,09,22.50
2016,06,22,17,10,22.50
2016,06,22,17,11,22.50
2016,06,22,17,12,22.40
2016,06,22,17,13,22.40
2016,06,22,17,14,22.40
2016,06,22,17,15,22.30
2016,06,22,17,16,22.20
2016,06,22,17,17,22.20
2016,06,22,17,18,22.10
2016,06,22,17,19,22.10